Hyannis, MA

7:53 AM EST on January 24, 2018 (GMT -0500)
Barnstable Municipal-Boardman-Polando Field

Weather History for KHYA - October, 2012

Change the Weather History Date:

Thursday, October 11, 2012

  Actual Average Record
Temperature  
Mean Temperature 50 °F -  
Max Temperature 59 °F 62 °F 79 °F (1955)
Min Temperature 41 °F 46 °F 29 °F (1963)
Degree Days  
Heating Degree Days 15    
Moisture  
Dew Point 38 °F    
Average Humidity 64    
Maximum Humidity 93    
Minimum Humidity 42    
Precipitation  
Precipitation 0.00 in - - ()
Sea Level Pressure  
Sea Level Pressure 30.04 in    
Wind  
Wind Speed 10 mph (West)    
Max Wind Speed 14 mph    
Max Gust Speed 23 mph    
Visibility 10 miles    
Events      
Averages and records for this station are not official NWS values.
T = Trace of Precipitation, MM = Missing Value Source: NWS Daily Summary

Daily Weather History Graph

Daily Weather History Graph

Search for Another Location

Airport or City:

Trip Planner

Search our weather history database for the weather conditions in past years. The results will help you decide how hot, cold, wet, or windy it might be!

Date:

Astronomy

Oct. 11, 2012 Rise Set
Actual Time 6:49 AM EDT 6:05 PM EDT
Civil Twilight 6:21 AM EDT 6:33 PM EDT
Nautical Twilight 5:49 AM EDT 7:05 PM EDT
Astronomical Twilight 5:16 AM EDT 7:37 PM EDT
Moon 2:21 AM EDT (10/11) 3:42 PM EDT (10/11)
Length of Visible Light 12h 11m
Length of Day
11h 16m
Waning Crescent, 18% of the Moon is Illuminated
Oct 11
Waning Crescent
Oct 15
New
Oct 21
First Quarter
Oct 29
Full
Nov 6
Last Quarter

Hourly Weather History & Observations

Time (EDT) Temp. Dew Point Humidity Pressure Visibility Wind Dir Wind Speed Gust Speed Precip Events Conditions
12:56 AM 57.0 °F 50.0 °F 77% 29.81 in 10.0 mi West 13.8 mph 19.6 mph N/A   Clear
2:56 AM 52.0 °F 42.1 °F 69% 29.85 in 10.0 mi West 8.1 mph - N/A   Clear
3:56 AM 50.0 °F 41.0 °F 71% 29.89 in 10.0 mi West 10.4 mph 18.4 mph N/A   Partly Cloudy
4:56 AM 48.0 °F 39.0 °F 71% 29.92 in 10.0 mi West 9.2 mph - N/A   Clear
5:56 AM 48.0 °F 37.9 °F 68% 29.96 in 10.0 mi West 9.2 mph - N/A   Clear
6:56 AM 46.9 °F 36.0 °F 66% 30.00 in 10.0 mi West 9.2 mph - N/A   Clear
8:56 AM 50.0 °F 37.0 °F 61% 30.04 in 10.0 mi WNW 12.7 mph 21.9 mph N/A   Clear
9:56 AM 52.0 °F 36.0 °F 54% 30.06 in 10.0 mi WNW 12.7 mph 23.0 mph N/A   Clear
10:56 AM 55.0 °F 37.0 °F 51% 30.09 in 10.0 mi West 11.5 mph - N/A   Clear
11:56 AM 57.0 °F 36.0 °F 45% 30.10 in 10.0 mi NW 8.1 mph 18.4 mph N/A   Clear
12:56 PM 57.9 °F 36.0 °F 44% 30.09 in 10.0 mi WSW 13.8 mph 17.3 mph N/A   Clear
1:56 PM 57.9 °F 35.1 °F 42% 30.09 in 10.0 mi WSW 10.4 mph - N/A   Clear
2:56 PM 59.0 °F 36.0 °F 42% 30.10 in 10.0 mi SW 9.2 mph - N/A   Clear
3:56 PM 59.0 °F 36.0 °F 42% 30.09 in 10.0 mi WSW 10.4 mph - N/A   Clear
5:56 PM 54.0 °F 37.9 °F 55% 30.12 in 10.0 mi SSW 3.5 mph - N/A   Clear
7:56 PM 45.0 °F 41.0 °F 86% 30.14 in 10.0 mi Calm Calm - N/A   Clear
9:56 PM 41.0 °F 39.0 °F 93% 30.16 in 10.0 mi Calm Calm - N/A   Clear
10:56 PM 41.0 °F 39.0 °F 93% 30.15 in 10.0 mi Calm Calm - N/A   Clear
11:56 PM 41.0 °F 39.0 °F 93% 30.14 in 10.0 mi Calm Calm - N/A   Clear